Regional Weather Roundup
Issued by NWS Lake Charles, LA

Home | Current Version | Previous Version | Text Only | Print | Product List | Glossary On
Versions: 1 2 3 4 5 6 7 8 9 10 11 12 13 14 15 16 17 18 19 20 21 22 23 24 25 26 27 28 29 30 31 32 33 34 35 36 37 38 39 40 41 42 43 44 45 46 47 48 49 50
000
ASUS44 KLCH 312310
RWRLCH
RWRLCH
REGIONAL WEATHER ROUNDUP
NATIONAL WEATHER SERVICE LAKE CHARLES LA
500 PM CST SAT JAN 31 2015

Note: "fair" indicates few or no clouds below 12,000 feet with no
significant weather and/or obstructions to visibility.


ACROSS SOUTHEAST TEXAS

CITY           SKY/WX    TMP DP  RH WIND       PRES   REMARKS
BEAUMONT       CLOUDY    60  52  74 E14G24    30.07F
BEAUMONT CITY  CLOUDY    60  53  76 SE14      30.07F
ORANGE         CLOUDY    62  52  69 E10G16    30.10F
JASPER         CLOUDY    60  49  66 E6        30.10F
$$

ACROSS CENTRAL LOUISIANA

CITY           SKY/WX    TMP DP  RH WIND       PRES   REMARKS
LEESVILLE      CLOUDY    59  47  65 SE8       30.10S
FULLERTON      MOCLDY    62  47  57 CALM      30.08F
ALEXANDRIA INT CLOUDY    58  42  55 SE9       30.11F
ESLER FIELD    CLOUDY    60  41  49 E6        30.12F
DERIDDER       CLOUDY    61  47  61 CALM      30.12F
OAKDALE        MOCLDY    61  48  62 CALM      30.12F
OPELOUSAS        N/A     64  48  57 E9        30.12F
$$

ACROSS SOUTHWEST AND SOUTH CENTRAL LOUISIANA

CITY           SKY/WX    TMP DP  RH WIND       PRES   REMARKS
SULPHUR        MOCLDY    63  52  67 E9        30.10F
LAKE CHARLES   PTCLDY    62  52  69 SE15      30.09F
CHENNAULT INT  NOT AVBL
CAMERON PHI    CLEAR     59  54  82 SE16G22   30.11F
DEQUINCY       CLOUDY    62  51  68 SE8       30.10S
JENNINGS         N/A     64  51  63 SE10G17   30.10F
LAFAYETTE      CLOUDY    63  49  60 VRB7      30.13F
NEW IBERIA     MOCLDY    63  49  60 E13       30.13F
ABBEVILLE      CLOUDY    63  50  62 E8        30.13S
PATTERSON      CLOUDY    63  48  59 E13       30.15S
SALT POINT       N/A     63  52  67 E8        30.12F
$$

SELECTED SITES ACROSS THE REGION

CITY           SKY/WX    TMP DP  RH WIND       PRES   REMARKS
HOUSTON BUSH   LGT RAIN  61  54  77 SE13      30.04F
HOUSTON HOBBY  CLOUDY    60  56  86 E13G20    30.03F
GALVESTON      CLOUDY    60  58  92 E16G23    30.03F FOG
COLLEGE STAT   CLOUDY    62  53  72 SE8       30.00S
CONROE         CLOUDY    59  51  75 SE12      30.04S
HUNTSVILLE     CLOUDY    61  51  70 SE6       30.02F
LUFKIN         CLOUDY    61  47  59 SE10      30.06F
SHREVEPORT     CLOUDY    58  34  40 SE12      30.08F
MONROE         MOCLDY    55  32  41 E5        30.15F
NATCHEZ MS     MOCLDY    59  34  38 SE9       30.16S
BATON ROUGE    MOCLDY    59  46  62 E12       30.16F
N.O. INTL ARPT CLOUDY    58  48  69 E9        30.18S
SLIDELL        MOCLDY    58  47  66 E6        30.19F
$$

MARINE REPORTS

STATION/POSITION TIME  TEMP    WIND        PRES    VSBY  WAVE
                       AIR SEA DIR/SP/G                  HT/PER
                 (UTC) (F)     (DEG/KT/KT) (MB)    (MI)  (FT/S)
BUOY 30 S HIGH I 2300   59 58  100/ 16/ 17 1016.7F         4/ 6
SEA RIM ST PARK  2300   57      90/ 13/ 16 1018.5F
PORT ARTHUR      2300      54  110/  8/ 12 1018.8F
SABINE PASS N    2300   57 56  110/ 12/ 16 1018.5F
TEXAS POINT      NOT AVBL
CALCASIEU PASS   2300   58 56  130/ 14/ 18   N/A
LK CHARLES BEACH 2300   63 54              1018.9F
MARSH ISLAND     2200   59     110/ 17/ 19   N/A
FRESH WATER LOCK 2300   61 58   70/ 18/ 24 1019.5F
AMERADA PASS     2300   62 50  100/ 10/ 14 1020.5S
$$


USA.gov is the U.S. government's official web portal to all federal, state and local government web resources and services.